When you browse on this site, cookies collect data to enhance your experience and personalize the content and advertising you see.
Visit our Privacy Policy to learn more. By continuing to use the site, you agree to this use of cookies and data.
  • In United Kingdom
  • List of Countries
  • For 7 days
  • Water Temperature
  • Satellite Maps
  • Weather Map
  • Weather Widgets
  • user-avatar
    Login

    Hourly Weather Reading

    Today, 23 May, Thursday

    Time Temperature Precipitation Wind Pressure Humidity
    00:00 +9°C° 0 mm 2 mps 760 mmHg 86%
    01:00 +9°C° 0 mm 2 mps 760 mmHg 86%
    02:00 +8°C° 0 mm 2 mps 759 mmHg 86%
    03:00 +8°C° 0 mm 2 mps 759 mmHg 86%
    04:00 +9°C° 0 mm 2 mps 759 mmHg 84%
    05:00 +11°C° 0 mm 1 mps 759 mmHg 82%
    06:00 +12°C° 0 mm 1 mps 759 mmHg 80%
    07:00 +13°C° 0 mm 1 mps 759 mmHg 75%
    08:00 +15°C° 0 mm 1 mps 759 mmHg 70%
    09:00 +18°C° 0 mm 1 mps 759 mmHg 65%
    10:00 +18°C° 0 mm 2 mps 759 mmHg 64%
    11:00 +19°C° 0 mm 2 mps 759 mmHg 64%
    12:00 +20°C° 0 mm 2 mps 759 mmHg 64%
    13:00 +20°C° 0.1 mm 2 mps 758 mmHg 63%
    14:00 +20°C° 0.1 mm 3 mps 758 mmHg 62%
    15:00 +21°C° 0.1 mm 3 mps 758 mmHg 61%
    16:00 +20°C° 0 mm 3 mps 758 mmHg 66%
    17:00 +20°C° 0 mm 2 mps 758 mmHg 70%
    18:00 +19°C° 0 mm 2 mps 757 mmHg 74%
    19:00 +17°C° 0 mm 2 mps 758 mmHg 78%
    20:00 +15°C° 0 mm 2 mps 758 mmHg 83%
    21:00 +13°C° 0 mm 2 mps 758 mmHg 87%
    22:00 +13°C° 0 mm 2 mps 758 mmHg 88%
    23:00 +12°C° 0 mm 2 mps 758 mmHg 89%

    Tomorrow, 24 May, Friday

    Time Temperature Precipitation Wind Pressure Humidity
    00:00 +10°C° 0 mm 2 mps 759 mmHg 91%
    01:00 +10°C° 0 mm 2 mps 759 mmHg 91%
    02:00 +9°C° 0 mm 2 mps 759 mmHg 92%
    03:00 +9°C° 0 mm 2 mps 759 mmHg 92%
    04:00 +9°C° 0 mm 2 mps 759 mmHg 90%
    05:00 +10°C° 0 mm 2 mps 759 mmHg 88%
    06:00 +11°C° 0 mm 3 mps 759 mmHg 86%
    07:00 +12°C° 0 mm 3 mps 759 mmHg 81%
    08:00 +14°C° 0 mm 3 mps 760 mmHg 75%
    09:00 +17°C° 0 mm 3 mps 760 mmHg 70%
    10:00 +18°C° 0 mm 3 mps 760 mmHg 67%
    11:00 +19°C° 0 mm 3 mps 760 mmHg 64%
    12:00 +20°C° 0 mm 2 mps 760 mmHg 60%
    13:00 +20°C° 0 mm 3 mps 760 mmHg 62%
    14:00 +20°C° 0 mm 3 mps 760 mmHg 63%
    15:00 +20°C° 0 mm 3 mps 759 mmHg 65%
    16:00 +20°C° 0.2 mm 3 mps 759 mmHg 71%
    17:00 +19°C° 0.2 mm 3 mps 759 mmHg 76%
    18:00 +18°C° 0.2 mm 3 mps 759 mmHg 82%
    19:00 +17°C° 0.1 mm 3 mps 760 mmHg 84%
    20:00 +16°C° 0.1 mm 2 mps 760 mmHg 87%
    21:00 +15°C° 0.1 mm 2 mps 760 mmHg 89%
    22:00 +14°C° 0 mm 2 mps 760 mmHg 90%
    23:00 +13°C° 0 mm 2 mps 760 mmHg 90%

    Day after tomorrow, 25 May, Saturday

    Time Temperature Precipitation Wind Pressure Humidity
    00:00 +12°C° 0 mm 2 mps 760 mmHg 91%
    01:00 +10°C° 0 mm 2 mps 760 mmHg 91%
    02:00 +10°C° 0 mm 2 mps 760 mmHg 91%
    03:00 +9°C° 0 mm 2 mps 760 mmHg 91%
    04:00 +10°C° 0 mm 2 mps 760 mmHg 90%
    05:00 +10°C° 0 mm 2 mps 760 mmHg 90%
    06:00 +12°C° 0 mm 2 mps 760 mmHg 90%
    07:00 +13°C° 0 mm 3 mps 760 mmHg 85%
    08:00 +14°C° 0 mm 3 mps 761 mmHg 81%
    09:00 +17°C° 0 mm 4 mps 761 mmHg 76%
    10:00 +18°C° 0 mm 4 mps 761 mmHg 72%
    11:00 +19°C° 0 mm 4 mps 761 mmHg 69%
    12:00 +20°C° 0 mm 4 mps 761 mmHg 65%
    13:00 +20°C° 0 mm 4 mps 761 mmHg 65%
    14:00 +20°C° 0 mm 4 mps 760 mmHg 65%
    15:00 +21°C° 0 mm 4 mps 760 mmHg 65%
    16:00 +20°C° 0.1 mm 3 mps 760 mmHg 69%
    17:00 +20°C° 0.1 mm 3 mps 760 mmHg 73%
    18:00 +20°C° 0.1 mm 2 mps 760 mmHg 77%
    19:00 +18°C° 0 mm 2 mps 760 mmHg 81%
    20:00 +17°C° 0 mm 2 mps 760 mmHg 86%
    21:00 +15°C° 0 mm 2 mps 760 mmHg 90%
    22:00 +15°C° 0 mm 2 mps 760 mmHg 90%
    23:00 +15°C° 0 mm 2 mps 760 mmHg 89%

    26 May, Sunday

    Time Temperature Precipitation Wind Pressure Humidity
    00:00 +14°C° 0 mm 2 mps 760 mmHg 89%
    01:00 +14°C° 0 mm 2 mps 759 mmHg 91%
    02:00 +13°C° 0 mm 2 mps 759 mmHg 92%
    03:00 +12°C° 0 mm 2 mps 758 mmHg 94%
    04:00 +12°C° 0 mm 3 mps 758 mmHg 93%
    05:00 +13°C° 0 mm 3 mps 758 mmHg 92%
    06:00 +13°C° 0 mm 3 mps 758 mmHg 92%
    07:00 +15°C° 0 mm 4 mps 758 mmHg 88%
    08:00 +17°C° 0 mm 4 mps 758 mmHg 84%
    09:00 +19°C° 0 mm 4 mps 758 mmHg 80%
    10:00 +19°C° 0.1 mm 5 mps 757 mmHg 79%
    11:00 +19°C° 0.1 mm 5 mps 757 mmHg 79%
    12:00 +19°C° 0.1 mm 5 mps 757 mmHg 78%
    13:00 +19°C° 0.1 mm 5 mps 756 mmHg 80%
    14:00 +17°C° 0.1 mm 5 mps 756 mmHg 81%
    15:00 +17°C° 0.1 mm 5 mps 756 mmHg 82%
    16:00 +17°C° 0 mm 5 mps 755 mmHg 83%
    17:00 +17°C° 0 mm 5 mps 755 mmHg 83%
    18:00 +17°C° 0 mm 5 mps 755 mmHg 84%
    19:00 +16°C° 0.1 mm 5 mps 755 mmHg 86%
    20:00 +15°C° 0.1 mm 5 mps 755 mmHg 89%
    21:00 +15°C° 0.1 mm 5 mps 754 mmHg 91%
    22:00 +14°C° 0.2 mm 5 mps 754 mmHg 92%
    23:00 +13°C° 0.2 mm 5 mps 754 mmHg 93%

    27 May, Monday

    Time Temperature Precipitation Wind Pressure Humidity
    00:00 +12°C° 0.2 mm 5 mps 754 mmHg 94%
    01:00 +11°C° 0 mm 4 mps 754 mmHg 94%
    02:00 +8°C° 0 mm 4 mps 754 mmHg 94%
    03:00 +8°C° 0 mm 3 mps 754 mmHg 94%
    04:00 +7°C° 0 mm 4 mps 754 mmHg 93%
    05:00 +8°C° 0 mm 4 mps 754 mmHg 91%
    06:00 +8°C° 0 mm 4 mps 754 mmHg 89%
    07:00 +10°C° 0 mm 5 mps 754 mmHg 84%
    08:00 +12°C° 0 mm 5 mps 753 mmHg 78%
    09:00 +14°C° 0 mm 6 mps 753 mmHg 73%
    10:00 +14°C° 0.2 mm 6 mps 753 mmHg 73%
    11:00 +14°C° 0.2 mm 6 mps 752 mmHg 73%
    12:00 +14°C° 0.2 mm 6 mps 752 mmHg 73%
    13:00 +14°C° 0.2 mm 6 mps 752 mmHg 74%
    14:00 +14°C° 0.2 mm 6 mps 751 mmHg 74%
    15:00 +13°C° 0.2 mm 6 mps 751 mmHg 75%
    16:00 +13°C° 0.2 mm 5 mps 750 mmHg 77%
    17:00 +12°C° 0.2 mm 5 mps 750 mmHg 79%
    18:00 +12°C° 0.2 mm 4 mps 749 mmHg 81%
    19:00 +11°C° 0.3 mm 4 mps 749 mmHg 85%
    20:00 +10°C° 0.3 mm 4 mps 749 mmHg 89%
    21:00 +9°C° 0.3 mm 3 mps 749 mmHg 93%
    22:00 +8°C° 0.2 mm 3 mps 749 mmHg 94%
    23:00 +8°C° 0.2 mm 3 mps 749 mmHg 94%

    28 May, Tuesday

    Time Temperature Precipitation Wind Pressure Humidity
    00:00 +8°C° 0.2 mm 3 mps 749 mmHg 95%
    01:00 +8°C° 0 mm 3 mps 749 mmHg 95%
    02:00 +6°C° 0 mm 4 mps 749 mmHg 95%
    03:00 +6°C° 0 mm 4 mps 749 mmHg 95%
    04:00 +6°C° 0 mm 5 mps 749 mmHg 93%
    05:00 +6°C° 0 mm 5 mps 750 mmHg 91%
    06:00 +5°C° 0 mm 6 mps 750 mmHg 89%
    07:00 +7°C° 0 mm 6 mps 751 mmHg 84%
    08:00 +8°C° 0 mm 7 mps 752 mmHg 79%
    09:00 +9°C° 0 mm 7 mps 752 mmHg 74%
    10:00 +9°C° 0.1 mm 7 mps 753 mmHg 71%
    11:00 +10°C° 0.1 mm 7 mps 753 mmHg 68%
    12:00 +10°C° 0.1 mm 7 mps 754 mmHg 65%
    13:00 +11°C° 0.1 mm 7 mps 754 mmHg 64%
    14:00 +11°C° 0.1 mm 7 mps 755 mmHg 63%
    15:00 +11°C° 0.1 mm 7 mps 755 mmHg 62%
    16:00 +11°C° 0.1 mm 6 mps 755 mmHg 66%
    17:00 +10°C° 0.1 mm 5 mps 756 mmHg 70%
    18:00 +10°C° 0.1 mm 4 mps 756 mmHg 75%
    19:00 +8°C° 0 mm 4 mps 757 mmHg 78%
    20:00 +8°C° 0 mm 3 mps 758 mmHg 82%
    21:00 +7°C° 0 mm 3 mps 758 mmHg 86%
    22:00 +5°C° 0 mm 3 mps 759 mmHg 88%
    23:00 +4°C° 0 mm 3 mps 759 mmHg 90%
    Show more